Location: Gleizolles
(44.4833°N, 6.7667°E)
Time: 04:07:03
(UTC+00:00)

N. Korean satellite - Pass Details

Date: 14 December 2021
Orbit: 447 x 491 km, 97.3° (Epoch: 23 January)

Event Time Altitude Azimuth Distance (km) Brightness Sun altitude
Rises 04:44:06 0° 14° (NNE) 2,460 10.2 -23.6°
Enters shadow 04:44:33 - 14° (NNE) 2,268 10.0 -23.5°
Exits shadow 04:51:10 28° 180° (S) 879 7.9 -22.3°
Drops below altitude 10° 04:52:54 10° 186° (S) 1,584 9.2 -22.0°
Sets 04:54:57 0° 189° (S) 2,458 10.2 -21.7°
